THORAD DELTA 1 DEB, 8790

Orbit data source: Space-Track

THORAD DELTA 1 DEB, 8790 is space debris in SSO originally from a launch on Fri, 15 Nov 1974 UTC launched from the Air Force Western Test Range (AFWTR). Debris objects in space refer to the collection of defunct objects orbiting the Earth. Examples of debris include non-operational satellites, rocket bodies, and fragments generated from explosions, collisions, or faulty payload assembly.

Loading next visibility...
Identifier
8790, 1974-089DS
Orbit
SSO
Country
Flag of USUS
Related business
Manufacturer
Unknown
Mission
Spacecraft
Bus & Motor
Unknown
Mass
Unknown
Launch date (UTC)
1974-11-15 (51 years ago)
Launch vehicle
Unknown
Launch site
Air Force Western Test Range (AFWTR)
Object type
Payload
Rocket body
Debris
Shape & HBR
Unknown shape, 0.1 m
Radar Cross Section
Small (<0.1 m²)

Expand to show TLE details & history
Last TLE update: 23 hours ago

TLE from 23 hours ago
0 THORAD DELTA 1 DEB
1 08790U 74089DS  25287.99839159  .00000028  00000-0  43004-3 0  9993
2 08790 101.8663 287.9586 0037465 196.5251 190.0049 12.59068593337767
Epoch: 2025-10-14T23:57Z
TLE epoch observation values (Epoch: 2025-10-14T23:57:41.033Z)
Latitude
25.88047°
Longitude
-101.0632°
Altitude
1,458.444 km
Speed
7.122 km/s
True Right ascension
18h 48m 32s
True Declination
25° 45' 28"
Sunlit
Object was in daylight at epoch
Visualization orbit readout
Latitude
Unknown
Longitude
Unknown
Altitude
Unknown
Speed
Unknown
Apparent Right ascension
Unknown
Apparent Declination
Unknown
Sunlit
N/A
Visualization observer readout
Local Sidereal Time
17:41:45
Azimuth
Unknown
Elevation
Unknown
Doppler factor
Unknown
Orbital elements
Apogee altitude
1,453.565 km
Perigee altitude
1,395.101 km
Semi-major axis
7,802.47 km
Eccentricity
0.00375
Inclination
101.8663°
RAAN
287.9586°
Arg. of periapsis
196.5251°
True anomaly
189.93066°
Mean anomaly
190.0049°
Eccentric anomaly
189.96774°
Mean motion
3.14916 °/min
Orbital period
114.32 mins
BSTAR
0.00043004
Loading maneuver chart data...
Computing Atmospheric mass density...

Documentation

Showing up to 5 results
|